| time (UTC) | temp F | wind direction | speed MPH | gust MPH | rain 1hr in | rain 24hr in | rain mn in | humidity % | barometer mb |
| 20260903073810 | 58 | 215 | 1.0 | 3.0 | 0.00 | 0.44 | 0.00 | 85 | 1015.7 |
| 20260903072518 | 58 | 231 | 1.0 | 2.0 | 0.00 | 0.44 | 0.00 | 85 | 1015.7 |
| 20260903071418 | 57 | 264 | 1.0 | 4.0 | 0.00 | 0.44 | 0.00 | 85 | 1015.8 |
| 20260903070318 | 58 | 248 | 2.0 | 3.0 | 0.00 | 0.44 | 0.00 | 85 | 1015.8 |
| 20260903065220 | 58 | 253 | 2.0 | 4.0 | 0.00 | 0.44 | 0.00 | 85 | 1015.9 |
| 20260903064118 | 57 | 235 | 1.0 | 2.0 | 0.00 | 0.44 | 0.00 | 85 | 1015.9 |
| 20260903062827 | 57 | 208 | 1.0 | 3.0 | 0.00 | 0.44 | 0.00 | 85 | 1016.0 |
| 20260903061727 | 57 | 231 | 2.0 | 3.0 | 0.00 | 0.44 | 0.00 | 85 | 1016.0 |
| 20260903060627 | 57 | 225 | 1.0 | 2.0 | 0.00 | 0.44 | 0.00 | 85 | 1016.1 |
| 20260903055527 | 57 | 225 | 1.0 | 2.0 | 0.00 | 0.44 | 0.00 | 85 | 1016.1 |
| 20260903054427 | 57 | 202 | 1.0 | 2.0 | 0.00 | 0.44 | 0.00 | 85 | 1016.1 |
| 20260903053327 | 57 | 231 | 2.0 | 4.0 | 0.00 | 0.44 | 0.00 | 85 | 1016.1 |
| 20260903052227 | 57 | 225 | 1.0 | 3.0 | 0.00 | 0.44 | 0.00 | 84 | 1016.2 |
| 20260903051127 | 57 | 235 | 2.0 | 3.0 | 0.00 | 0.44 | 0.00 | 84 | 1016.3 |
| 20260903050027 | 57 | 244 | 2.0 | 2.0 | 0.00 | 0.44 | 0.00 | 84 | 1016.4 |
| 20260903044734 | 57 | 238 | 2.0 | 3.0 | 0.00 | 0.44 | 0.00 | 84 | 1016.4 |
| 20260903043443 | 57 | 248 | 1.0 | 4.0 | 0.00 | 0.44 | 0.00 | 84 | 1016.4 |
| 20260903042343 | 57 | 248 | 2.0 | 4.0 | 0.00 | 0.44 | 0.00 | 84 | 1016.3 |
| 20260903041243 | 58 | 225 | 2.0 | 3.0 | 0.00 | 0.44 | 0.00 | 84 | 1016.3 |
| 20260903040143 | 58 | 232 | 2.0 | 4.0 | 0.00 | 0.44 | 0.00 | 84 | 1016.2 |
| 20260903035043 | 58 | 248 | 1.0 | 3.0 | 0.00 | 0.44 | 0.00 | 84 | 1016.2 |
| 20260903033943 | 58 | 251 | 2.0 | 4.0 | 0.00 | 0.44 | 0.00 | 84 | 1016.1 |
| 20260903032651 | 58 | 255 | 2.0 | 3.0 | 0.00 | 0.44 | 0.00 | 84 | 1016.0 |
| 20260903031552 | 58 | 208 | 2.0 | 3.0 | 0.00 | 0.44 | 0.00 | 84 | 1015.8 |
| 20260903030454 | 58 | 225 | 1.0 | 4.0 | 0.00 | 0.44 | 0.00 | 84 | 1015.7 |
| 20260903025351 | 58 | 250 | 2.0 | 3.0 | 0.00 | 0.44 | 0.00 | 83 | 1015.8 |
| 20260903024251 | 59 | 253 | 2.0 | 5.0 | 0.00 | 0.44 | 0.00 | 83 | 1015.9 |
| 20260903023152 | 59 | 231 | 1.0 | 4.0 | 0.00 | 0.44 | 0.00 | 83 | 1016.0 |
| 20260903022051 | 59 | 240 | 2.0 | 6.0 | 0.00 | 0.44 | 0.00 | 83 | 1016.0 |
| 20260903020801 | 59 | 192 | 1.0 | 3.0 | 0.00 | 0.44 | 0.00 | 83 | 1016.0 |
| 20260903015700 | 59 | 211 | 2.0 | 3.0 | 0.00 | 0.44 | 0.00 | 82 | 1016.1 |
| 20260903014600 | 60 | 255 | 2.0 | 3.0 | 0.00 | 0.44 | 0.00 | 82 | 1016.2 |
| 20260903013500 | 60 | 240 | 2.0 | 4.0 | 0.00 | 0.44 | 0.00 | 82 | 1016.2 |
| 20260903012400 | 60 | 202 | 2.0 | 4.0 | 0.00 | 0.44 | 0.00 | 81 | 1016.2 |
| 20260903011300 | 60 | 248 | 2.0 | 4.0 | 0.00 | 0.44 | 0.00 | 80 | 1016.3 |
| 20260903010009 | 60 | 218 | 2.0 | 5.0 | 0.00 | 0.44 | 0.00 | 80 | 1016.4 |
| 20260903004718 | 61 | 225 | 3.0 | 7.0 | 0.00 | 0.44 | 0.00 | 79 | 1016.3 |
| 20260903003618 | 61 | 228 | 3.0 | 5.0 | 0.00 | 0.44 | 0.00 | 79 | 1016.2 |
| 20260903002518 | 62 | 292 | 2.0 | 4.0 | 0.00 | 0.44 | 0.00 | 79 | 1016.3 |
| 20260903001419 | 62 | 202 | 2.0 | 6.0 | 0.00 | 0.44 | 0.00 | 79 | 1016.3 |
| 20260903000318 | 62 | 239 | 3.0 | 4.0 | 0.00 | 0.44 | 0.00 | 79 | 1016.4 |
| 20260902235027 | 63 | 202 | 3.0 | 4.0 | 0.00 | 0.44 | 0.00 | 78 | 1016.5 |
| 20260902233926 | 63 | 248 | 3.0 | 6.0 | 0.00 | 0.44 | 0.00 | 77 | 1016.5 |
| 20260902232826 | 64 | 228 | 3.0 | 6.0 | 0.00 | 0.44 | 0.00 | 76 | 1016.6 |
| 20260902231726 | 64 | 193 | 3.0 | 7.0 | 0.00 | 0.44 | 0.00 | 74 | 1016.7 |
| 20260902230435 | 64 | 236 | 2.0 | 5.0 | 0.00 | 0.44 | 0.00 | 75 | 1016.8 |
| 20260902225335 | 65 | 186 | 2.0 | 6.0 | 0.00 | 0.44 | 0.00 | 73 | 1016.9 |
| 20260902224235 | 65 | 228 | 3.0 | 5.0 | 0.00 | 0.44 | 0.00 | 74 | 1017.0 |
| 20260902223135 | 65 | 292 | 3.0 | 6.0 | 0.00 | 0.44 | 0.00 | 74 | 1017.1 |
| 20260902222037 | 66 | 236 | 2.0 | 4.0 | 0.00 | 0.44 | 0.00 | 74 | 1017.1 |
| 20260902220935 | 65 | 192 | 3.0 | 6.0 | 0.00 | 0.44 | 0.00 | 74 | 1017.1 |
| 20260902215835 | 66 | 214 | 3.0 | 6.0 | 0.00 | 0.44 | 0.00 | 74 | 1017.2 |
| 20260902214735 | 65 | 222 | 3.0 | 5.0 | 0.00 | 0.44 | 0.00 | 73 | 1017.2 |
| 20260902213635 | 65 | 219 | 4.0 | 10.0 | 0.00 | 0.44 | 0.00 | 75 | 1017.2 |
| 20260902212535 | 64 | 248 | 3.0 | 6.0 | 0.00 | 0.44 | 0.00 | 76 | 1017.2 |
| 20260902211244 | 64 | 260 | 3.0 | 4.0 | 0.00 | 0.44 | 0.00 | 76 | 1017.2 |
| 20260902210144 | 64 | 208 | 2.0 | 4.0 | 0.00 | 0.44 | 0.00 | 78 | 1017.2 |
| 20260902205044 | 64 | 325 | 2.0 | 5.0 | 0.00 | 0.44 | 0.00 | 75 | 1017.2 |
| 20260902203753 | 64 | 233 | 3.0 | 5.0 | 0.00 | 0.44 | 0.00 | 75 | 1017.3 |
| 20260902202653 | 63 | 270 | 1.0 | 4.0 | 0.00 | 0.44 | 0.00 | 78 | 1017.3 |
| 20260902201553 | 63 | 241 | 2.0 | 6.0 | 0.00 | 0.44 | 0.00 | 78 | 1017.4 |
| 20260902200302 | 62 | 259 | 2.0 | 6.0 | 0.00 | 0.44 | 0.00 | 79 | 1017.3 |
| 20260902195201 | 61 | 270 | 2.0 | 4.0 | 0.00 | 0.44 | 0.00 | 81 | 1017.5 |
| 20260902194102 | 61 | 164 | 2.0 | 4.0 | 0.00 | 0.44 | 0.00 | 81 | 1017.6 |
| 20260902193002 | 60 | 202 | 1.0 | 4.0 | 0.00 | 0.44 | 0.00 | 83 | 1017.5 |
| 20260902191901 | 60 | 238 | 2.0 | 4.0 | 0.00 | 0.44 | 0.00 | 83 | 1017.6 |
| 20260902190802 | 60 | 196 | 3.0 | 6.0 | 0.00 | 0.44 | 0.00 | 81 | 1017.7 |
| 20260902185702 | 60 | 253 | 1.0 | 6.0 | 0.00 | 0.44 | 0.00 | 83 | 1017.7 |
| 20260902184601 | 59 | 197 | 3.0 | 6.0 | 0.00 | 0.44 | 0.00 | 83 | 1017.7 |
| 20260902183311 | 60 | 219 | 1.0 | 5.0 | 0.00 | 0.44 | 0.00 | 84 | 1017.7 |
| 20260902182019 | 59 | 295 | 0.0 | 3.0 | 0.00 | 0.44 | 0.00 | 85 | 1017.6 |
| 20260902180919 | 59 | 272 | 2.0 | 3.0 | 0.00 | 0.44 | 0.00 | 85 | 1017.5 |
| 20260902175819 | 59 | 206 | 2.0 | 3.0 | 0.00 | 0.44 | 0.00 | 85 | 1017.3 |
| 20260902174719 | 58 | 151 | 1.0 | 3.0 | 0.00 | 0.44 | 0.00 | 85 | 1017.3 |
| 20260902173619 | 58 | 231 | 2.0 | 4.0 | 0.00 | 0.44 | 0.00 | 86 | 1017.1 |
| 20260902172519 | 58 | 264 | 2.0 | 3.0 | 0.00 | 0.44 | 0.00 | 85 | 1017.1 |
| 20260902171419 | 59 | 225 | 3.0 | 4.0 | 0.00 | 0.44 | 0.00 | 85 | 1016.9 |
| 20260902170319 | 59 | 180 | 1.0 | 2.0 | 0.00 | 0.44 | 0.00 | 86 | 1016.8 |
| 20260902165219 | 59 | 167 | 1.0 | 3.0 | 0.00 | 0.44 | 0.00 | 85 | 1016.7 |
| 20260902164119 | 58 | 252 | 1.0 | 3.0 | 0.00 | 0.44 | 0.00 | 85 | 1016.5 |
| 20260902162635 | 58 | 188 | 0.0 | 3.0 | 0.00 | 0.44 | 0.00 | 85 | 1016.3 |
| 20260902161535 | 58 | 281 | 2.0 | 3.0 | 0.00 | 0.44 | 0.00 | 85 | 1016.3 |
| 20260902160435 | 58 | 214 | 2.0 | 3.0 | 0.00 | 0.44 | 0.00 | 85 | 1016.3 |
| 20260902155335 | 58 | 219 | 2.0 | 3.0 | 0.00 | 0.44 | 0.00 | 85 | 1016.2 |
| 20260902154235 | 58 | 202 | 1.0 | 3.0 | 0.00 | 0.44 | 0.00 | 85 | 1016.3 |
| 20260902153136 | 58 | 65 | 1.0 | 2.0 | 0.00 | 0.44 | 0.00 | 85 | 1016.3 |
| 20260902152035 | 58 | 180 | 0.0 | 2.0 | 0.00 | 0.44 | 0.00 | 85 | 1016.2 |
| 20260902150744 | 58 | 217 | 1.0 | 2.0 | 0.00 | 0.44 | 0.00 | 85 | 1016.1 |
| 20260902145644 | 58 | 217 | 1.0 | 3.0 | 0.01 | 0.44 | 0.00 | 85 | 1016.2 |
| 20260902144544 | 58 | 225 | 1.0 | 4.0 | 0.01 | 0.44 | 0.00 | 85 | 1016.2 |
| 20260902143444 | 58 | 219 | 2.0 | 4.0 | 0.04 | 0.44 | 0.00 | 85 | 1016.0 |
| 20260902142344 | 58 | 158 | 1.0 | 3.0 | 0.07 | 0.44 | 0.00 | 85 | 1015.8 |
| 20260902141244 | 58 | 180 | 0.0 | 2.0 | 0.12 | 0.44 | 0.00 | 85 | 1015.5 |
| 20260902140144 | 58 | 110 | 0.0 | 2.0 | 0.14 | 0.44 | 0.00 | 85 | 1015.4 |
| 20260902135044 | 58 | 112 | 1.0 | 3.0 | 0.15 | 0.43 | 0.43 | 85 | 1015.4 |
| 20260902133752 | 57 | 135 | 0.0 | 2.0 | 0.17 | 0.40 | 0.40 | 85 | 1015.4 |
| 20260902132652 | 57 | 87 | 1.0 | 2.0 | 0.17 | 0.38 | 0.38 | 85 | 1015.3 |
| 20260902131551 | 57 | 90 | 0.0 | 1.0 | 0.17 | 0.35 | 0.35 | 85 | 1015.2 |
| 20260902130451 | 57 | 232 | 0.0 | 2.0 | 0.16 | 0.31 | 0.31 | 85 | 1015.2 |
| 20260902125200 | 57 | 225 | 1.0 | 3.0 | 0.18 | 0.28 | 0.28 | 85 | 1015.0 |
| 20260902123909 | 57 | 93 | 0.0 | 3.0 | 0.18 | 0.23 | 0.23 | 85 | 1015.0 |
| 20260902122809 | 57 | 109 | 1.0 | 2.0 | 0.17 | 0.21 | 0.21 | 85 | 1015.0 |
| 20260902121709 | 57 | 242 | 0.0 | 2.0 | 0.17 | 0.19 | 0.19 | 85 | 1015.1 |
| 20260902120609 | 57 | 257 | 0.0 | 3.0 | 0.15 | 0.17 | 0.17 | 85 | 1015.1 |
| 20260902115512 | 57 | 298 | 1.0 | 2.0 | 0.09 | 0.12 | 0.12 | 85 | 1015.1 |
| 20260902114409 | 57 | 214 | 1.0 | 2.0 | 0.05 | 0.06 | 0.06 | 85 | 1015.1 |
| 20260902113118 | 57 | 135 | 0.0 | 2.0 | 0.04 | 0.04 | 0.04 | 85 | 1015.1 |
| 20260902112018 | 57 | 132 | 1.0 | 2.0 | 0.02 | 0.02 | 0.02 | 85 | 1015.2 |
| 20260902110918 | 57 | 110 | 1.0 | 3.0 | 0.02 | 0.02 | 0.02 | 85 | 1015.1 |
| 20260902105818 | 57 | 135 | 1.0 | 2.0 | 0.02 | 0.02 | 0.02 | 85 | 1015.0 |
| 20260902104718 | 57 | 112 | 2.0 | 3.0 | 0.02 | 0.02 | 0.02 | 85 | 1015.0 |
| 20260902103618 | 57 | 135 | 1.0 | 2.0 | 0.01 | 0.01 | 0.01 | 85 | 1015.2 |
| 20260902102327 | 57 | 135 | 0.0 | 2.0 | 0.00 | 0.00 | 0.00 | 85 | 1015.3 |
| 20260902101227 | 57 | 164 | 1.0 | 2.0 | 0.00 | 0.00 | 0.00 | 85 | 1015.4 |
| 20260902100128 | 57 | 135 | 0.0 | 3.0 | 0.00 | 0.00 | 0.00 | 85 | 1015.5 |
| 20260902095027 | 57 | 92 | 2.0 | 3.0 | 0.00 | 0.00 | 0.00 | 85 | 1015.5 |
| 20260902093927 | 57 | 90 | 1.0 | 2.0 | 0.00 | 0.00 | 0.00 | 85 | 1015.5 |
| 20260902092827 | 57 | 138 | 0.0 | 2.0 | 0.00 | 0.00 | 0.00 | 85 | 1015.6 |
| 20260902091727 | 57 | 129 | 0.0 | 2.0 | 0.00 | 0.00 | 0.00 | 84 | 1015.6 |
| 20260902090627 | 57 | 138 | 0.0 | 3.0 | 0.00 | 0.00 | 0.00 | 84 | 1015.7 |
| 20260902085144 | 57 | 193 | 0.0 | 2.0 | 0.00 | 0.00 | 0.00 | 84 | 1015.8 |
| 20260902084044 | 57 | 122 | 1.0 | 2.0 | 0.00 | 0.00 | 0.00 | 84 | 1015.9 |
| 20260902082944 | 57 | 70 | 1.0 | 3.0 | 0.00 | 0.00 | 0.00 | 84 | 1016.0 |
| 20260902081844 | 57 | 138 | 1.0 | 3.0 | 0.00 | 0.00 | 0.00 | 84 | 1015.9 |
| 20260902080744 | 57 | 200 | 0.0 | 2.0 | 0.00 | 0.00 | 0.00 | 84 | 1016.0 |
| 20260902075644 | 57 | 177 | 1.0 | 2.0 | 0.00 | 0.00 | 0.00 | 84 | 1016.0 |